Location: Cactus School
(34.5700°N, 118.0931°W)
Time: 10:08:12
(UTC-07:00)

S-56A Canister/Altair - Pass Details

Date: 21 April 2024
Orbit: 638 x 2488 km, 38.9° (Epoch: 29 May)

Event Time Altitude Azimuth Distance (km) Brightness Sun altitude
Rises 17:08:11 0° 249° (WSW) 2,983 11.7 28.0°
Reaches altitude 10° 17:10:16 10° 249° (WSW) 2,147 11.3 27.6°
Maximum altitude 17:15:08 89° 339° (NNW) 829 8.2 26.6°
Drops below altitude 10° 17:21:53 10° 71° (ENE) 2,949 10.1 25.2°
Sets 17:25:12 0° 71° (ENE) 4,200 10.8 24.5°
